Estación de San Esteban

Ultimos registro cada 15 minutos 39
Estación Fecha / Hora Temperatura Humedad Lluvia Velocidad Dirección Radiación Presion
39 San Esteban 01-09-2026 09:30 13,6 69 0 0 195 427 1017,2
38 San Esteban 01-09-2026 09:15 13,1 69 0 0 264 251 1017,3
37 San Esteban 01-09-2026 09:00 12,3 70 0 0 18 220 1017,3
36 San Esteban 01-09-2026 08:45 11,7 74 0 0 18 148 1017,1
35 San Esteban 01-09-2026 08:30 11,1 76 0 0 18 135 1017,1
34 San Esteban 01-09-2026 08:15 10,6 76 0 0 18 90 1017,1
33 San Esteban 01-09-2026 08:00 10,2 74 0 0,4 18 67 1016,6
32 San Esteban 01-09-2026 07:45 9,6 75 0 0,9 42 63 1016,2
31 San Esteban 01-09-2026 07:30 9,2 77 0 1,8 36 39 1016,2
30 San Esteban 01-09-2026 07:15 9,2 76 0 1,8 34 18 1016,4
29 San Esteban 01-09-2026 07:00 9,3 74 0 1,3 23 0 1016,5
28 San Esteban 01-09-2026 06:45 9,1 75 0 1,3 343 0 1016,1
27 San Esteban 01-09-2026 06:30 9,2 76 0 1,8 21 0 1016
26 San Esteban 01-09-2026 06:15 9,3 75 0 0,9 40 0 1016,2
25 San Esteban 01-09-2026 06:00 9,1 74 0 1,3 39 0 1016,3
24 San Esteban 01-09-2026 05:45 8,6 75 0 1,8 37 0 1016,3
23 San Esteban 01-09-2026 05:30 8,9 73 0 1,8 39 0 1016,5
22 San Esteban 01-09-2026 05:15 8,8 74 0 1,3 32 0 1016,5
21 San Esteban 01-09-2026 05:00 8,7 77 0 2,2 31 0 1016,3
20 San Esteban 01-09-2026 04:45 8,8 78 0 1,8 16 0 1016,3
19 San Esteban 01-09-2026 04:30 8,7 77 0 1,8 26 0 1016,8
18 San Esteban 01-09-2026 04:15 8,9 77 0 1,8 11 0 1016,6
17 San Esteban 01-09-2026 04:00 9,1 77 0 1,3 41 0 1016,5
16 San Esteban 01-09-2026 03:45 9,2 77 0 1,3 26 0 1016,6
15 San Esteban 01-09-2026 03:30 9,3 78 0 1,8 16 0 1016,8
14 San Esteban 01-09-2026 03:15 9,3 79 0 2,2 26 0 1017
13 San Esteban 01-09-2026 03:00 9,8 77 0 0,9 29 0 1017,3
12 San Esteban 01-09-2026 02:45 10,3 77 0 1,8 32 0 1017,4
11 San Esteban 01-09-2026 02:30 10,3 78 0 1,3 27 0 1017,7
10 San Esteban 01-09-2026 02:15 10,6 78 0 0,9 5 0 1017,7
9 San Esteban 01-09-2026 02:00 10,6 78 0 1,3 32 0 1017,8
8 San Esteban 01-09-2026 01:45 10,7 79 0 1,8 40 0 1018,3
7 San Esteban 01-09-2026 01:30 11,2 78 0 1,8 43 0 1018,5
6 San Esteban 01-09-2026 01:15 11,3 76 0 0,9 341 0 1018,5
5 San Esteban 01-09-2026 01:00 11,4 75 0 0,9 32 0 1018,3
4 San Esteban 01-09-2026 00:45 11,1 76 0 0 72 0 1018,2
3 San Esteban 01-09-2026 00:30 11,3 75 0 0,9 36 0 1018,2
2 San Esteban 01-09-2026 00:15 11,5 75 0 1,3 30 0 1018,5
1 San Esteban 01-09-2026 00:00 11 78 0 1,3 46 0 1018,5